This demonstration page uses our WeatherBlox Daily Observations layout. Learn more.

Left ArrowRight Arrow

36.19886, -115.1175

Hourly Observations for May 26, 2020

Temp ( °F °C ) Dew Point ( °F °C ) Humidity (%) Winds ( mph kmh ) Pressure ( in mb ) Visibility ( mi km ) Precip ( " mm )
12:53 am 00:53 Clear 75 23.9 32 undefined 21 21 NW 5 7 29.89 1012 10 16 N/A
1:53 am 01:53 Clear 73 22.8 31 -0.6 21 21 NW 5 7 29.89 1012 10 16 N/A
2:53 am 02:53 Clear 72 22.2 33 0.6 24 24 NW 6 9 29.89 1012 10 16 N/A
3:53 am 03:53 Clear 71 21.7 29 -1.7 21 21 NNE 5 7 29.90 1012 10 16 N/A
4:53 am 04:53 Clear 70 21.1 32 undefined 25 25 WNW 5 7 29.91 1013 10 16 N/A
5:53 am 05:53 Sunny 71 21.7 33 0.6 25 25 N N/A 29.92 1013 10 16 N/A
6:53 am 06:53 Sunny 73 22.8 35 1.7 25 25 NW 3 6 29.94 1014 10 16 N/A
7:53 am 07:53 Sunny 79 26.1 33 0.6 19 19 N N/A 29.94 1014 10 16 N/A
8:53 am 08:53 Sunny 83 28.3 31 -0.6 15 15 SSE 5 7 29.94 1014 10 16 N/A
9:53 am 09:53 Sunny 87 30.6 29 -1.7 12 12 SE 6 9 29.93 1014 10 16 N/A
10:53 am 10:53 Sunny 90 32.2 28 -2.2 11 11 VRB 5 7 29.93 1013 10 16 N/A
11:53 am 11:53 Sunny 93 33.9 27 -2.8 9 9 NE 5 7 29.91 1013 10 16 N/A
12:53 pm 12:53 Sunny 94 34.4 28 -2.2 9 9 N N/A 29.89 1012 10 16 N/A
1:53 pm 13:53 Sunny 97 36.1 29 -1.7 9 9 VRB 3 6 29.86 1011 10 16 N/A
2:53 pm 14:53 Sunny 98 36.7 29 -1.7 9 9 VRB 6 9 29.84 1011 10 16 N/A
3:53 pm 15:53 Sunny 100 37.8 29 -1.7 8 8 N N/A 29.82 1010 10 16 N/A
4:53 pm 16:53 Sunny 100 37.8 29 -1.7 8 8 SE 5 7 29.80 1009 10 16 N/A
5:53 pm 17:53 Sunny 101 38.3 29 -1.7 8 8 ESE 5 7 29.78 1009 10 16 N/A
6:53 pm 18:53 Sunny 99 37.2 29 -1.7 8 8 SE 5 7 29.78 1008 10 16 N/A
7:53 pm 19:53 Clear 96 35.6 30 -1.1 10 10 SE 9 15 29.78 1008 10 16 N/A
8:53 pm 20:53 Clear 94 34.4 31 -0.6 11 11 S 5 7 29.79 1009 10 16 N/A
9:53 pm 21:53 Clear 92 33.3 31 -0.6 11 11 SW 3 6 29.81 1009 10 16 N/A
10:53 pm 22:53 Clear 90 32.2 34 1.1 14 14 SW 3 6 29.80 1009 10 16 N/A
11:53 pm 23:53 Clear 84 28.9 36 2.2 18 18 WNW 3 6 29.80 1009 10 16 N/A

Powered by AerisWeather